Lid_Strength_Index
3 3 3 3 3 3 3 3 3 3 3 3 3 3 3 3 3 3 3 3 3 3 3 2 1 0 1 3 4 -0 -1 -0 -0 1 2 3 4 5 6 5 5 6 5 5 4 4 4
3 3 3 3 3 3 3 3 3 3 3 3 3 3 3 3 3 3 3 3 3 3 3 2 0 0 2 5 0 -0 -0 1 1 1 2 2 3 3 5 5 6 4 5 5 5 5 4
3 3 3 3 3 3 3 3 3 3 3 3 3 3 3 3 3 3 3 4 4 3 3 1 -0 1 2 3 0 -0 -0 1 1 1 2 1 2 4 4 5 4 4 6 6 5 5 5
3 3 3 3 3 3 3 3 3 3 3 3 3 3 3 4 4 4 4 4 4 3 2 -0 0 1 4 0 0 1 -0 1 1 0 1 1 2 3 5 4 5 6 7 9 6 5 5
3 3 3 3 3 3 3 3 3 3 4 4 4 4 4 4 4 4 4 4 4 2 1 -1 1 2 4 1 2 1 0 2 1 1 1 1 3 4 5 8 9 9 13 12 8 5 6
3 3 3 3 3 3 3 3 3 4 4 4 4 4 4 4 4 5 5 4 1 1 0 -0 1 4 2 3 2 2 0 1 2 2 3 3 4 5 6 8 16 13 12 11 12 8 7
3 3 3 3 3 3 3 3 3 3 3 3 4 4 4 4 4 5 5 1 3 4 2 4 3 4 3 2 1 3 1 2 2 3 6 4 6 8 7 7 8 9 10 12 10 7 8
2 2 3 3 3 3 3 3 3 3 3 3 3 4 4 4 5 5 4 3 2 2 5 2 2 2 2 2 3 3 1 3 4 6 5 6 7 5 5 7 8 8 10 10 8 7 7
2 2 2 2 3 3 3 3 3 3 3 3 4 4 4 5 5 4 2 2 0 1 4 4 3 3 3 2 4 4 3 3 5 6 6 7 6 5 6 6 7 7 8 8 10 7 6
2 2 2 3 3 3 3 3 3 4 4 4 4 4 5 5 5 2 3 -0 0 0 7 6 4 3 3 3 4 2 2 3 5 6 6 6 5 5 6 7 6 8 6 7 7 8 11
2 2 3 3 3 3 3 4 4 4 4 4 4 5 5 6 3 4 3 2 1 1 13 6 5 2 2 4 4 4 2 3 5 6 5 7 6 6 7 6 5 7 6 7 7 8 9
2 3 3 3 3 3 4 4 4 4 4 5 5 5 6 3 2 2 2 3 2 8 11 7 4 5 5 4 4 3 4 3 3 5 5 6 4 5 6 5 5 5 6 6 7 8 11
3 3 3 3 3 4 4 4 4 5 5 5 6 6 6 3 3 1 2 3 8 10 6 7 6 5 5 6 5 5 5 6 7 8 8 6 7 5 5 6 5 6 7 11 12 12 12
3 3 3 3 4 4 4 4 5 5 5 6 7 7 4 2 1 1 3 6 11 7 7 5 6 6 7 6 6 6 6 7 5 6 8 9 10 6 5 6 7 7 7 10 14 13 11
3 3 3 3 4 4 4 4 5 5 6 6 7 2 2 0 1 2 5 9 8 7 6 6 6 7 7 6 6 6 6 7 6 6 8 8 9 5 5 5 5 7 8 6 9 9 13
3 3 3 4 4 4 4 5 5 5 6 7 5 3 2 0 2 4 7 10 6 5 5 5 8 6 8 7 7 7 7 5 6 5 5 7 9 6 6 5 5 6 5 9 8 13 15
3 3 4 4 4 4 4 4 5 5 6 7 4 4 1 0 2 6 9 7 5 4 4 6 7 7 7 7 7 7 7 6 5 5 5 6 7 7 6 7 7 7 8 7 8 9 11
3 4 4 4 4 4 4 4 5 6 7 5 4 6 2 0 5 5 7 6 6 5 4 5 5 6 6 6 7 7 7 6 4 5 6 5 7 9 8 6 5 6 7 7 10 10 9
3 4 4 4 4 4 4 4 4 5 5 6 5 4 1 2 7 6 5 5 5 5 5 6 6 5 5 6 8 6 6 5 4 5 6 5 7 10 9 7 6 7 7 7 7 7 9
4 4 4 4 3 3 3 3 3 4 4 4 4 6 3 3 3 5 6 6 7 4 5 5 5 5 6 6 5 7 6 5 4 5 1 4 7 8 10 8 7 8 8 7 7 9 9
4 4 3 3 3 2 2 2 2 3 3 2 4 5 4 7 5 5 5 6 7 7 5 5 6 6 6 7 7 7 6 6 5 7 4 5 8 7 7 7 7 7 7 7 8 7 9
4 3 3 3 2 2 2 1 1 2 3 2 5 5 4 5 4 5 6 6 6 6 5 6 7 6 5 7 7 8 7 7 8 5 5 5 8 7 8 7 7 8 7 7 7 7 7
3 3 2 2 2 2 1 1 1 2 3 2 2 2 4 6 5 6 6 6 6 5 5 5 5 6 7 6 5 5 5 5 5 6 6 6 7 8 9 7 7 9 7 7 7 6 7
3 3 2 2 2 1 1 1 1 1 2 3 2 3 5 7 6 6 5 5 5 5 6 5 5 6 4 3 3 4 5 5 5 5 5 6 7 7 9 8 12 7 5 6 6 6 6
2 2 2 2 1 1 1 1 1 1 2 3 2 3 5 7 5 5 5 5 5 4 5 5 5 4 3 4 6 8 8 7 7 5 5 7 8 9 11 10 8 7 6 6 7 7 5
2 2 1 1 1 1 1 1 1 1 2 3 3 3 5 7 6 5 6 5 7 6 5 5 3 2 3 5 7 11 11 9 9 8 5 6 7 12 11 13 12 7 5 4 5 8 5
1 1 1 1 1 1 2 2 2 2 2 3 4 3 5 8 6 6 7 7 5 6 7 5 5 5 3 7 9 10 10 7 10 10 9 8 8 12 14 12 9 6 5 4 9 10 5
1 1 1 1 2 2 3 3 3 3 2 2 4 2 4 6 4 4 4 6 6 6 7 5 6 5 6 8 8 8 9 8 8 8 8 9 9 10 9 11 12 6 6 7 7 5 5
1 1 1 2 2 2 2 2 2 2 2 1 3 1 -1 3 4 1 2 2 4 4 5 5 6 6 6 8 8 8 9 7 8 10 6 9 7 8 8 8 7 6 7 4 4 5 4